• In Hungary
  • List of Countries
  • For 7 days
  • Water Temperature
  • Satellite Maps
  • Weather Map
  • News
  • Weather Widgets
  • user-avatar
    Login

    Hourly Weather Qala i Naw

    Today, 24 February, Saturday

    Time Temperature Precipitation Wind Pressure Humidity
    00:00 +9°C° 0.1 mm 1 mps 678 mmHg 92%
    01:00 +8°C° 0.1 mm 1 mps 678 mmHg 92%
    02:00 +8°C° 0.4 mm 1 mps 678 mmHg 92%
    03:00 +8°C° 0.4 mm 1 mps 678 mmHg 92%
    04:00 +7°C° 0 mm 2 mps 677 mmHg 92%
    05:00 +7°C° 1 mm 2 mps 678 mmHg 91%
    06:00 +7°C° 1 mm 2 mps 678 mmHg 91%
    07:00 +7°C° 1 mm 2 mps 679 mmHg 91%
    08:00 +8°C° 0.3 mm 2 mps 679 mmHg 86%
    09:00 +9°C° 0.3 mm 2 mps 679 mmHg 81%
    10:00 +10°C° 0 mm 2 mps 679 mmHg 75%
    11:00 +13°C° 0 mm 2 mps 679 mmHg 68%
    12:00 +14°C° 0 mm 2 mps 679 mmHg 61%
    13:00 +16°C° 0 mm 2 mps 679 mmHg 54%
    14:00 +16°C° 0 mm 2 mps 679 mmHg 51%
    15:00 +17°C° 0 mm 2 mps 679 mmHg 49%
    16:00 +17°C° 0 mm 2 mps 678 mmHg 49%
    17:00 +16°C° 0 mm 2 mps 679 mmHg 54%
    18:00 +15°C° 0 mm 2 mps 679 mmHg 60%
    19:00 +14°C° 0 mm 2 mps 679 mmHg 65%
    20:00 +14°C° 0 mm 2 mps 679 mmHg 63%
    21:00 +13°C° 0 mm 2 mps 679 mmHg 61%
    22:00 +13°C° 0 mm 2 mps 679 mmHg 59%
    23:00 +12°C° 0 mm 3 mps 679 mmHg 58%

    Tomorrow, 25 February, Sunday

    Time Temperature Precipitation Wind Pressure Humidity
    00:00 +12°C° 0 mm 3 mps 679 mmHg 56%
    01:00 +12°C° 0 mm 3 mps 679 mmHg 55%
    02:00 +12°C° 0 mm 3 mps 679 mmHg 54%
    03:00 +12°C° 0 mm 3 mps 679 mmHg 53%
    04:00 +12°C° 0 mm 3 mps 679 mmHg 52%
    05:00 +12°C° 0 mm 3 mps 679 mmHg 51%
    06:00 +12°C° 0 mm 3 mps 679 mmHg 51%
    07:00 +12°C° 0 mm 3 mps 679 mmHg 50%
    08:00 +13°C° 0.2 mm 3 mps 679 mmHg 49%
    09:00 +14°C° 0.2 mm 3 mps 679 mmHg 49%
    10:00 +16°C° 0.2 mm 3 mps 679 mmHg 48%
    11:00 +17°C° 0.3 mm 3 mps 678 mmHg 48%
    12:00 +17°C° 0.3 mm 3 mps 678 mmHg 49%
    13:00 +18°C° 0.3 mm 3 mps 678 mmHg 49%
    14:00 +17°C° 1 mm 3 mps 677 mmHg 55%
    15:00 +16°C° 1 mm 3 mps 677 mmHg 61%
    16:00 +15°C° 1 mm 4 mps 677 mmHg 66%
    17:00 +14°C° 0.9 mm 3 mps 677 mmHg 70%
    18:00 +14°C° 0.9 mm 3 mps 677 mmHg 73%
    19:00 +13°C° 0.9 mm 3 mps 677 mmHg 77%
    20:00 +13°C° 0.3 mm 3 mps 676 mmHg 76%
    21:00 +13°C° 0.3 mm 3 mps 676 mmHg 75%
    22:00 +14°C° 0.3 mm 3 mps 676 mmHg 73%
    23:00 +13°C° 0.3 mm 3 mps 675 mmHg 75%

    Day after tomorrow, 26 February, Monday

    Time Temperature Precipitation Wind Pressure Humidity
    00:00 +13°C° 0.3 mm 3 mps 675 mmHg 77%
    01:00 +13°C° 0.3 mm 3 mps 675 mmHg 78%
    02:00 +13°C° 0.8 mm 3 mps 675 mmHg 80%
    03:00 +13°C° 0.8 mm 3 mps 675 mmHg 81%
    04:00 +12°C° 0.8 mm 3 mps 675 mmHg 83%
    05:00 +12°C° 2.7 mm 3 mps 675 mmHg 85%
    06:00 +12°C° 2.7 mm 3 mps 675 mmHg 88%
    07:00 +12°C° 2.7 mm 3 mps 676 mmHg 90%
    08:00 +12°C° 3 mm 3 mps 676 mmHg 89%
    09:00 +12°C° 3 mm 3 mps 677 mmHg 89%
    10:00 +12°C° 3 mm 3 mps 677 mmHg 88%
    11:00 +12°C° 2.2 mm 3 mps 677 mmHg 87%
    12:00 +13°C° 2.2 mm 2 mps 677 mmHg 86%
    13:00 +13°C° 2.2 mm 2 mps 677 mmHg 86%
    14:00 +12°C° 1.6 mm 3 mps 677 mmHg 84%
    15:00 +12°C° 1.6 mm 3 mps 677 mmHg 83%
    16:00 +11°C° 1.6 mm 3 mps 677 mmHg 81%
    17:00 +11°C° 0.2 mm 3 mps 677 mmHg 80%
    18:00 +11°C° 0.2 mm 3 mps 678 mmHg 79%
    19:00 +11°C° 0.2 mm 3 mps 678 mmHg 77%
    20:00 +11°C° 0 mm 3 mps 678 mmHg 75%
    21:00 +11°C° 0 mm 3 mps 679 mmHg 73%
    22:00 +11°C° 0 mm 3 mps 679 mmHg 71%
    23:00 +12°C° 0 mm 2 mps 679 mmHg 70%

    27 February, Tuesday

    Time Temperature Precipitation Wind Pressure Humidity
    00:00 +10°C° 0 mm 2 mps 679 mmHg 70%
    01:00 +10°C° 0 mm 2 mps 679 mmHg 69%
    02:00 +10°C° 0 mm 2 mps 679 mmHg 70%
    03:00 +10°C° 0 mm 2 mps 679 mmHg 70%
    04:00 +11°C° 0 mm 1 mps 679 mmHg 71%
    05:00 +10°C° 0 mm 2 mps 679 mmHg 70%
    06:00 +10°C° 0 mm 2 mps 680 mmHg 69%
    07:00 +10°C° 0 mm 2 mps 680 mmHg 68%
    08:00 +13°C° 0 mm 2 mps 681 mmHg 61%
    09:00 +15°C° 0 mm 2 mps 681 mmHg 55%
    10:00 +17°C° 0 mm 2 mps 682 mmHg 49%
    11:00 +18°C° 0 mm 2 mps 681 mmHg 45%
    12:00 +19°C° 0 mm 2 mps 681 mmHg 42%
    13:00 +20°C° 0 mm 2 mps 681 mmHg 38%
    14:00 +20°C° 0 mm 2 mps 681 mmHg 38%
    15:00 +20°C° 0 mm 3 mps 680 mmHg 39%
    16:00 +20°C° 0 mm 3 mps 680 mmHg 39%
    17:00 +19°C° 0 mm 3 mps 680 mmHg 44%
    18:00 +18°C° 0 mm 2 mps 680 mmHg 49%
    19:00 +16°C° 0 mm 2 mps 680 mmHg 54%
    20:00 +16°C° 0 mm 2 mps 680 mmHg 54%
    21:00 +16°C° 0 mm 2 mps 680 mmHg 54%
    22:00 +16°C° 0 mm 2 mps 680 mmHg 54%
    23:00 +16°C° 0 mm 2 mps 680 mmHg 54%

    28 February, Wednesday

    Time Temperature Precipitation Wind Pressure Humidity
    00:00 +15°C° 0 mm 2 mps 680 mmHg 53%
    01:00 +15°C° 0 mm 2 mps 679 mmHg 53%
    02:00 +15°C° 0 mm 2 mps 679 mmHg 54%
    03:00 +15°C° 0 mm 2 mps 679 mmHg 55%
    04:00 +14°C° 0 mm 2 mps 679 mmHg 55%
    05:00 +14°C° 0 mm 2 mps 679 mmHg 57%
    06:00 +14°C° 0 mm 2 mps 679 mmHg 58%
    07:00 +14°C° 0 mm 2 mps 679 mmHg 60%
    08:00 +16°C° 0 mm 2 mps 680 mmHg 55%
    09:00 +17°C° 0 mm 2 mps 680 mmHg 50%
    10:00 +19°C° 0 mm 3 mps 680 mmHg 45%
    11:00 +19°C° 0.1 mm 3 mps 680 mmHg 44%
    12:00 +20°C° 0.1 mm 3 mps 680 mmHg 43%
    13:00 +21°C° 0.1 mm 3 mps 679 mmHg 41%
    14:00 +20°C° 0.2 mm 3 mps 679 mmHg 45%
    15:00 +20°C° 0.2 mm 3 mps 679 mmHg 49%
    16:00 +19°C° 0.2 mm 3 mps 678 mmHg 52%
    17:00 +18°C° 0.5 mm 3 mps 679 mmHg 59%
    18:00 +17°C° 0.5 mm 3 mps 679 mmHg 67%
    19:00 +14°C° 0.5 mm 3 mps 679 mmHg 74%
    20:00 +14°C° 0.7 mm 3 mps 679 mmHg 78%
    21:00 +13°C° 0.7 mm 3 mps 679 mmHg 83%
    22:00 +12°C° 0.7 mm 3 mps 679 mmHg 87%
    23:00 +13°C° 1.6 mm 2 mps 679 mmHg 89%

    1 March, Thursday

    Time Temperature Precipitation Wind Pressure Humidity
    00:00 +12°C° 1.6 mm 2 mps 679 mmHg 90%
    01:00 +12°C° 1.6 mm 2 mps 678 mmHg 92%
    02:00 +12°C° 0.6 mm 2 mps 678 mmHg 91%
    03:00 +12°C° 0.6 mm 2 mps 678 mmHg 91%
    04:00 +12°C° 0.6 mm 1 mps 678 mmHg 90%
    05:00 +12°C° 0.1 mm 2 mps 678 mmHg 89%
    06:00 +12°C° 0.1 mm 2 mps 678 mmHg 89%
    07:00 +12°C° 0.1 mm 2 mps 679 mmHg 89%
    08:00 +12°C° 0.1 mm 2 mps 679 mmHg 87%
    09:00 +12°C° 0.1 mm 2 mps 679 mmHg 85%
    10:00 +13°C° 0.1 mm 2 mps 679 mmHg 84%
    11:00 +13°C° 0.1 mm 2 mps 679 mmHg 81%
    12:00 +13°C° 0.1 mm 3 mps 678 mmHg 78%
    13:00 +13°C° 0.1 mm 3 mps 678 mmHg 76%
    14:00 +13°C° 0.2 mm 3 mps 678 mmHg 77%
    15:00 +13°C° 0.2 mm 3 mps 678 mmHg 79%
    16:00 +13°C° 0.2 mm 3 mps 677 mmHg 81%
    17:00 +12°C° 0.1 mm 3 mps 678 mmHg 83%
    18:00 +13°C° 0.1 mm 2 mps 678 mmHg 86%
    19:00 +12°C° 0.1 mm 2 mps 678 mmHg 88%
    20:00 +12°C° 0.1 mm 2 mps 678 mmHg 88%
    21:00 +12°C° 0.1 mm 2 mps 678 mmHg 88%
    22:00 +12°C° 0.1 mm 2 mps 678 mmHg 88%
    23:00 +11°C° 0 mm 1 mps 678 mmHg 88%
    Show more